Погода в Нови Биджове

Чехия     50°14′28″N   15°29′32″E
В апреле 2022 года жителям России запретили посещать сайт meteo.paraplan.net по решению Генеральной прокуратуры. Аудитория сайта уменьшилась в 10 раз. Владельцы сайта не видят смысла в поддержке погодного сервера в таких условиях. Сайт будет закрыт в октябре.
темп.,
°C
ветер,
м/с
пор.,
м/с
влажн.,
%
обл.,
%
осадки,
мм/ч
давл.,
гПа
погр.,
м
3 октября, пн
пн323:00+9з511925 0.1 1017250
02:00+9з6129314 0.1 1019387
05:00+10зсз71183100 0.0 1020837
08:00+10зсз71382100 0.0 10201065
11:00+10зсз71377100 0.1 10211254
14:00+12сз81367100 0.1 10221365
17:00+14зсз7116056 0.0 10211427
20:00+12зсз61272100 0.0 1021762
4 октября, вт
вт423:00+12зсз51176100 0.1 1021616
02:00+11зсз7128153 0.4 1021684
05:00+10зсз6108889 0.0 1021420
08:00+11зсз5879100 0.1 1021620
11:00+12зсз4776100 0.0 1023958
14:00+13зсз466884 0.1 1023943
17:00+14сз35645 0.0 1022842
20:00+10юв11817 0.0 102310
5 октября, ср
ср523:00+9вюв118625 0.0 102410
02:00+8вюв229055 0.0 102416
05:00+8в2290100 0.0 102318
08:00+9в2384100 0.0 102376
11:00+14юв3464100 0.0 1022392
14:00+18ю354894 0.0 1021740
17:00+18ю3557100 0.0 1020182
20:00+12ююв3478100 0.0 102252
6 октября, чт
чт623:00+12ююв227894 0.0 102316
02:00+11юз118197 0.0 102411
05:00+10зюз2287100 0.0 102519
08:00+11з239097 0.0 102767
11:00+16зсз477128 0.0 1029724
14:00+18зсз465111 0.0 10291504
17:00+17зсз35495 0.0 1029275
20:00+12с226328 0.0 103011
7 октября, пт
пт723:00+10всв11700 0.0 103110
02:00+9всв22775 0.0 103111
05:00+8в228023 0.0 103018
08:00+8в23809 0.0 102950
11:00+15вюв335624 0.0 1027399
14:00+19ююв245016 0.0 1024980
17:00+19ю246025 0.0 1022200
20:00+14ююв238119 0.0 102125